Location: Azenweiler
(47.8027°N, 9.4096°E)
Time: 11:22:10
(UTC+00:00)

Cosmos 2237 Rocket - Visible Passes

Search period start: 15 March 2026 00:00
Search period end: 25 March 2026 00:00
Orbit: 832 x 850 km, 71.0° (Epoch: 14 March)

Date Brightness Start Highest point End Pass type
(mag) Time Alt. Az. Time Alt. Az. Time Alt. Az.
15 Mar 3.2 02:10:21 41° E 02:10:21 41° E 02:15:13 10° NE visible
15 Mar 2.9 03:52:10 30° W 03:54:00 37° NW 03:59:16 10° NNE visible
16 Mar 3.4 01:55:40 37° E 01:55:40 37° E 01:59:58 10° NE visible
16 Mar 2.8 03:37:29 34° W 03:38:46 39° NW 03:44:05 10° NNE visible
17 Mar 3.6 01:40:56 33° ENE 01:40:56 33° ENE 01:44:43 10° NE visible
17 Mar 2.7 03:22:44 38° WNW 03:23:31 40° NW 03:28:54 10° NNE visible
18 Mar 3.8 01:26:10 29° ENE 01:26:10 29° ENE 01:29:28 10° NE visible
18 Mar 2.7 03:07:58 42° WNW 03:08:18 42° NW 03:13:42 10° NNE visible
18 Mar 4.2 04:51:57 10° NW 04:53:59 12° NNW 04:56:02 10° N visible
19 Mar 4.0 01:11:21 25° ENE 01:11:21 25° ENE 01:14:12 10° NE visible
19 Mar 2.7 02:53:09 44° NW 02:53:09 44° NW 02:58:30 10° NNE visible
19 Mar 4.2 04:36:28 10° NW 04:38:42 12° NNW 04:40:57 10° N visible
20 Mar 4.2 00:56:30 23° ENE 00:56:30 23° ENE 00:58:57 10° NE visible
20 Mar 2.7 02:38:18 45° NW 02:38:18 45° NW 02:43:18 10° NNE visible
20 Mar 4.2 04:21:00 10° WNW 04:23:25 13° NNW 04:25:51 10° N visible
21 Mar 4.4 00:41:38 20° ENE 00:41:38 20° ENE 00:43:41 10° NE visible
21 Mar 2.8 02:23:25 45° NNW 02:23:25 45° NNW 02:28:07 10° NNE visible
21 Mar 4.2 04:05:33 10° WNW 04:08:08 13° NNW 04:10:44 10° N visible
22 Mar 4.5 00:26:43 18° ENE 00:26:43 18° ENE 00:28:25 10° NE visible
22 Mar 3.0 02:08:31 44° NNW 02:08:31 44° NNW 02:12:54 10° NNE visible
22 Mar 4.2 03:50:18 10° WNW 03:52:51 13° NNW 03:55:36 10° N visible
23 Mar 4.6 00:11:48 16° NE 00:11:48 16° NE 00:13:10 10° NE visible
23 Mar 3.1 01:53:35 42° NNW 01:53:35 42° NNW 01:57:43 10° NNE visible
23 Mar 4.2 03:35:22 12° WNW 03:37:34 14° NNW 03:40:28 10° N visible
23 Mar 4.7 23:56:50 14° NE 23:56:50 14° NE 23:57:53 10° NE visible
24 Mar 3.2 01:38:38 40° N 01:38:38 40° N 01:42:30 10° NNE visible
24 Mar 4.2 03:20:25 13° NW 03:22:18 14° NW 03:25:20 10° N visible
24 Mar 4.7 23:41:51 13° NE 23:41:51 13° NE 23:42:36 10° NE visible
